Starlink 5508

operational
NORAD ID: 55639 Int'l Des: 2023-021 Owner: SPXS Country: US Constellation: starlink
LEOCIRCULAR

About Starlink 5508

Description loading...

Live Position

Loading 3D Globe...

Upcoming Passes

Altitude History

Altitude vs Time

uPlot chart will show altitude changes over time

Two-Line Element Set

1 55639U 23021M 25257.45609292 .00000361 00000-0 38036-4 0 9998
2 55639 69.9975 268.7885 0003643 269.0503 91.0239 14.98332055142393
Epoch: Sep 14, 2025 • Age: 25 hours

Current Status

Altitude 581.0 km
Velocity 7.57 km/s
Sub-Earth Point 48.62°N, 105.92°W
Launch Date Feb 17, 2023
Age 2.5 years
Type internet

Technical Details

Classification Payload
Mass 305.00 kg
Dry Mass 290.00 kg
Total Mass 305.00 kg
Length 0.20 m
Diameter 2.80 m
Span 9.00 m
Shape Box + pan
Manufacturer SPXS
Bus Type Starlink
Phase Status In Orbit
Owner/State SPXS/US

Large Constellations

Loading constellations...